Location: Arthez
(43.0833°N, 0.2500°W)
Time: 15:10:39
(UTC+00:00)

NOSS 3-1 (A) - Pass Details

Date: 15 December 2023
Orbit: 665 x 1546 km, 63.4° (Epoch: 18 February)

Event Time Altitude Azimuth Distance (km) Brightness Sun altitude
Exits shadow 06:12:02 - 332° (NNW) 2,963 5.6 -12.9°
Reaches altitude 10° 06:13:23 10° 343° (NNW) 2,772 5.5 -12.6°
Maximum altitude 06:16:28 13° 11° (N) 2,669 5.7 -12.1°
Drops below altitude 10° 06:19:49 10° 39° (NE) 3,077 6.3 -11.5°
Sets 06:24:46 0° 64° (ENE) 4,259 7.5 -10.7°
